User: anonymous   Login
Location: Poughquag
(41.6090°N, 73.6820°W)
Time: 17:14:40
(UTC-04:00)
Language:

CUBEBUG 2 - Orbit

View from above orbital plane
View from above orbital plane
View from above satellite
View from above satellite

Ground track
Ground track

The orbit data is extracted from the following two-line orbital elements,

1 39440U 13066AA  24205.59818746  .00006950  00000-0  81011-3 0  9991
2 39440  97.8139 148.4932 0070222 153.7779 206.7018 14.83744836573739
Epoch (UTC): 23 July 2024 14:21:23
Eccentricity: 0.0070222
inclination: 97.8139°
perigee height: 568 km
apogee height: 666 km
right ascension of ascending node: 148.4932°
argument of perigee: 153.7779°
revolutions per day: 14.83744836
mean anomaly at epoch: 206.7018°
orbit number at epoch: 57373

The dashed part of the orbit path shows where the satellite is in the earth's shadow,  

DLR